#timestamp,LO_Frequency,Hit,StdDev 
1507975215.7,286046996.7,N
1507975235.5,286046999.9,N
1507975255.4,286047003.2,N
1507975275.2,286047003.4,N
1507975295.0,286047006.0,N
1507975295.9,286047006.0,N
1507975315.7,286047006.6,N
1507975335.6,286047005.4,N
1507975355.4,286047003.2,N
1507975375.2,286047003.1,N
1507975395.1,286047000.1,N
1507975396.0,286047000.1,N
1507975415.8,286046993.7,N
1507975435.6,286046988.5,N
1507975455.5,286046986.6,N
1507975475.3,286046981.8,Y
1507975495.1,286046982.8,P
1507975515.9,286046979.4,N
1507975535.7,286046982.9,N
1507975555.5,286046985.5,N
1507975575.4,286046985.3,N
1507975595.2,286046985.8,N
1507975615.0,286046992.1,N
1507975615.9,286046992.1,N
1507975635.8,286046995.1,N
1507975655.6,286046995.0,N
1507975675.4,286046993.7,N
1507975695.3,286046988.1,N
1507975715.1,286046988.8,N
1507975716.0,286046988.8,N
1507975735.8,286046993.4,N
1507975755.7,286046991.2,N
1507975775.5,286046982.8,Y
1507975795.3,286046991.9,P
1507975815.2,286046995.0,P
1507975835.9,286046998.8,N
1507975855.7,286046996.2,N
1507975875.5,286046998.4,N
1507975895.4,286047003.2,N
1507975915.2,286047004.5,N
1507975935.0,286047003.2,N
1507975935.9,286047003.2,N
1507975955.8,286047005.3,N
1507975975.6,286047007.2,N
1507975995.4,286047007.5,N
1507976015.3,286047004.5,N
1507976035.1,286047003.4,N
1507976036.0,286047003.4,N
1507976055.8,286047003.5,N
1507976075.7,286047001.1,N
1507976095.5,286046992.7,N
1507976115.3,286046996.1,N
1507976135.2,286047001.2,N
1507976155.9,286046996.0,N
1507976175.7,286046999.5,N
1507976195.5,286047000.5,N
1507976215.4,286047002.3,N
1507976235.2,286047002.7,N
1507976255.0,286046999.6,N
1507976255.9,286046999.6,N
1507976275.8,286046997.4,N
1507976295.6,286046990.7,N
1507976315.4,286046990.2,N
1507976335.3,286046993.0,N
1507976355.1,286046991.2,N
1507976375.8,286046988.3,N
1507976395.7,286046981.6,Y
1507976415.5,286046978.3,P
1507976435.3,286046975.7,N
1507976455.2,286046983.5,N
1507976475.9,286046986.9,N
1507976495.7,286046994.0,N
1507976515.6,286047000.4,N
1507976535.4,286046996.6,N
1507976555.2,286047000.7,N
1507976575.1,286047004.3,N
1507976576.0,286047004.3,N
1507976595.8,286047006.9,N
1507976615.6,286047005.1,N
1507976635.5,286047008.1,N
1507976655.3,286047014.0,N
1507976675.1,286047011.3,N
1507976695.9,286047008.8,N
1507976715.7,286047010.4,N
1507976735.5,286047010.7,N
1507976755.3,286047007.4,N
1507976775.2,286047008.9,N
1507976795.0,286047006.7,N
1507976795.9,286047006.7,N
1507976815.7,286047008.9,N
1507976835.6,286047010.8,N
1507976855.4,286047010.4,N
1507976875.2,286047010.8,N
1507976895.1,286047007.9,N
1507976896.0,286047007.9,N
1507976915.8,286047008.0,N
1507976935.6,286047012.0,N
1507976955.5,286047010.3,N
1507976975.3,286047011.9,N
1507976995.1,286047010.0,N
1507977015.9,286047013.2,N
1507977035.7,286047016.5,Y
1507977055.5,286047007.2,P
1507977075.4,286047008.0,P
1507977095.2,286047006.3,P
1507977115.0,286047006.4,Y
1507977115.9,286047006.4,P
1507977135.8,286046998.1,P
1507977155.6,286046999.4,N
1507977175.4,286046996.9,N
1507977195.3,286046998.1,N
1507977215.1,286046996.2,N
1507977216.0,286046996.2,N
1507977235.8,286046995.3,N
1507977255.7,286046997.8,N
1507977275.5,286046993.5,N
1507977295.3,286046993.8,N
1507977315.1,286046997.7,N
1507977335.9,286046997.5,N
1507977355.7,286046997.3,N
1507977375.5,286046994.9,N
1507977395.4,286046999.2,N
1507977415.2,286046999.1,N
1507977435.0,286046997.0,N
1507977435.9,286046997.0,N
1507977455.8,286046996.0,N
1507977475.6,286046995.4,N
1507977495.4,286046993.9,N
1507977515.3,286046993.1,N
1507977535.1,286046991.3,N
1507977536.0,286046991.3,N
1507977555.8,286046991.5,N
1507977575.7,286046989.2,N
1507977595.5,286046989.9,N
1507977615.3,286046987.7,Y
1507977635.2,286046992.5,P
1507977655.9,286046995.0,N
1507977675.7,286046991.7,P
1507977695.6,286046988.9,Y
1507977715.4,286046995.0,P
1507977735.2,286046999.6,N
1507977755.1,286046998.5,N
1507977756.0,286046998.5,N
1507977775.8,286046996.9,N
1507977795.6,286046996.9,N
1507977815.5,286046997.1,N
1507977835.3,286046999.0,N
1507977855.1,286046999.2,N
1507977875.8,286046999.9,N
1507977895.7,286046999.3,N
1507977915.5,286047001.2,N
1507977935.3,286046997.5,N
1507977955.2,286046988.3,Y
1507977975.0,286046990.8,P
1507977975.9,286046990.8,N
1507977995.7,286046993.4,N
1507978015.6,286046996.1,N
1507978035.4,286046995.8,N
1507978055.2,286046996.6,N
1507978075.1,286047000.7,N
1507978076.0,286047000.7,N
1507978095.8,286047001.3,N
1507978115.6,286047002.1,N
1507978135.5,286047003.1,N
1507978155.3,286047006.8,N
1507978175.1,286047003.3,N
1507978195.9,286047002.4,N
1507978215.7,286046996.7,N
1507978235.5,286046998.1,N
1507978255.4,286047000.6,N
1507978275.2,286047000.7,N
1507978295.0,286046995.0,N
1507978295.9,286046995.0,N
1507978315.8,286046999.0,N
1507978335.6,286047002.1,N
1507978355.4,286046999.9,N
1507978375.2,286047000.3,N
1507978395.1,286047004.0,N
1507978396.0,286047004.0,N
1507978415.8,286046998.5,N
1507978435.6,286046997.7,N
1507978455.5,286046993.1,N
1507978475.3,286046993.6,N
1507978495.1,286046997.1,N
1507978515.9,286047000.8,N
1507978535.7,286047000.3,N
1507978555.5,286047003.6,N
1507978575.4,286047001.0,N
1507978595.2,286046996.6,N
1507978615.0,286046996.0,N
1507978615.9,286046996.0,N
1507978635.8,286046994.0,N
1507978655.6,286046990.7,N
1507978675.4,286046989.4,N
1507978695.3,286046980.9,Y
1507978715.1,286046980.2,P
1507978716.0,286046980.2,N
1507978735.8,286046977.3,N
1507978755.7,286046981.9,N
1507978775.5,286046983.1,N
1507978795.3,286046986.7,N
